Flag for Ireland Weather past 2 weeks in Cork, Ireland

Now
57 °F

Passing clouds.


Feels Like: 56 °F
Forecast: 47 / 65 °F
Wind: 7 mph from Southwest

Location: Cork Airport

Current Time: Aug 29, 2015 at 8:19:12 PM

Latest Report: Aug 29, 2015 at 8:00 PM


Visibility: N/A

Pressure: 30.04 "Hg

Humidity: 88%

Dew point: 54 °F

Location of CorkLocation

Historic Weather in Cork — Graph

°F

Cork temperature yesterday

Maximum temperature yesterday: 61 °F (at 11:30 AM)
Minimum temperature yesterday: 48 °F (at 4:00 AM)
Average temperature yesterday: 55 °F

Past Weeks' High & Low Weather Summary

 TemperatureHumidityPressure
High68 °F (Aug 19, 2:00 PM)100% (Aug 15, 10:00 PM)30.07 "Hg (Aug 15, 10:00 PM)
Low45 °F (Aug 27, 7:00 AM)48% (Aug 24, 1:30 PM)29.39 "Hg (Aug 26, 12:30 AM)
Average57 °F90%29.81 "Hg
* Reported Aug 14 7:00 PM — Aug 29 7:00 PM, Cork, Weather by CustomWeather, © 2015

Note: Actual official high and low records may vary slightly from our data, if they occured in-between our weather recording intervals... More about our weather records

Advertising

Cork weather history for previous 24 hours

 ConditionsComfort  
Time TempWeatherWind HumidityBarometerVisibility
7:00 PM
Sat, Aug 29
59 °FPassing clouds.12 mph88%30.04 "HgN/A
6:30 PM59 °FSprinkles. Passing clouds.9 mph88%30.04 "HgN/A
6:00 PM61 °FScattered clouds.12 mph77%30.04 "HgN/A
5:30 PM63 °FScattered clouds.13 mph77%30.04 "HgN/A
5:00 PM63 °FScattered clouds.14 mph73%30.01 "HgN/A
4:30 PM63 °FScattered clouds.15 mph77%30.01 "HgN/A
4:00 PM61 °FScattered clouds.14 mph77%30.01 "HgN/A
3:30 PM61 °FScattered clouds.10 mph83%30.04 "HgN/A
3:00 PM64 °FScattered clouds.17 mph73%30.04 "HgN/A
2:30 PM61 °FPartly sunny.14 mph77%30.01 "HgN/A
2:00 PM63 °FScattered clouds.14 mph77%30.01 "HgN/A
1:30 PM61 °FPartly sunny.16 mph77%30.01 "HgN/A
1:00 PM63 °FScattered clouds.14 mph77%30.01 "HgN/A
12:30 PM63 °FScattered clouds.16 mph77%30.01 "HgN/A
12:00 PM61 °FPassing clouds.15 mph77%30.01 "HgN/A
11:00 AM61 °FScattered clouds.15 mph77%30.01 "HgN/A
10:30 AM61 °FScattered clouds.16 mph83%30.01 "HgN/A
10:00 AM59 °FBroken clouds.12 mph88%30.01 "HgN/A
9:00 AM57 °FPassing clouds.10 mph94%30.01 "HgN/A
8:30 AM55 °FPassing clouds.6 mph100%30.01 "HgN/A
8:00 AM54 °FPassing clouds.8 mph100%29.98 "HgN/A
7:00 AM54 °FPassing clouds.8 mph100%29.98 "HgN/A
6:30 AM54 °FPassing clouds.10 mph100%29.98 "HgN/A
6:00 AM54 °FPassing clouds.9 mph100%29.98 "HgN/A
5:00 AM52 °FPassing clouds.6 mph100%29.98 "HgN/A
4:00 AM52 °FPassing clouds.8 mph100%29.98 "HgN/A
3:30 AM54 °FPassing clouds.10 mph100%29.98 "HgN/A
3:00 AM54 °FPassing clouds.9 mph100%29.95 "HgN/A
2:30 AM54 °FPartly cloudy.7 mph100%29.98 "HgN/A
2:00 AM54 °FPassing clouds.8 mph100%29.98 "HgN/A
1:30 AM54 °FPassing clouds.9 mph100%29.98 "HgN/A
1:00 AM54 °FPassing clouds.6 mph100%29.98 "HgN/A
12:30 AM54 °FPassing clouds.6 mph100%29.95 "HgN/A
12:00 AM54 °FPartly cloudy.9 mph100%29.95 "HgN/A
11:30 PM
Fri, Aug 28
54 °FPassing clouds.8 mph100%29.95 "HgN/A
11:00 PM52 °FPassing clouds.7 mph100%29.95 "HgN/A
10:30 PM54 °FPassing clouds.8 mph100%29.95 "HgN/A
10:00 PM54 °FPassing clouds.10 mph100%29.95 "HgN/A
9:30 PM54 °FPassing clouds.10 mph100%29.95 "HgN/A
9:00 PM54 °FPartly sunny.8 mph100%29.95 "HgN/A
8:30 PM55 °FPartly sunny.10 mph88%29.92 "HgN/A
8:00 PM57 °FScattered clouds.12 mph88%29.92 "HgN/A
Weather by CustomWeather, © 2015

See weather overviewHow to use our weather pages